TimeMST,TemperatureF,Dew PointF,Humidity,Sea Level PressureIn,VisibilityMPH,Wind Direction,Wind SpeedMPH,Gust SpeedMPH,PrecipitationIn,Events,Conditions,WindDirDegrees,DateUTC
12:53 AM,23.0,15.1,72,29.98,10.0,SE,5.8,-,N/A,,Clear,140,2013-03-06 07:53:00
1:53 AM,28.0,15.1,58,29.94,10.0,SSE,10.4,-,N/A,,Clear,160,2013-03-06 08:53:00
2:53 AM,26.1,14.0,60,29.92,10.0,South,5.8,-,N/A,,Clear,190,2013-03-06 09:53:00
3:53 AM,26.1,16.0,66,29.88,10.0,South,3.5,-,N/A,,Mostly Cloudy,170,2013-03-06 10:53:00
4:53 AM,28.9,18.0,64,29.87,10.0,South,4.6,-,N/A,,Overcast,190,2013-03-06 11:53:00
5:53 AM,25.0,18.0,75,29.87,10.0,Calm,Calm,-,N/A,,Scattered Clouds,0,2013-03-06 12:53:00
6:53 AM,25.0,17.1,72,29.86,10.0,Calm,Calm,-,N/A,,Partly Cloudy,0,2013-03-06 13:53:00
7:22 AM,24.8,17.6,74,29.76,1.8,WSW,4.6,-,N/A,,Haze,240,2013-03-06 14:22:00
7:37 AM,24.8,17.6,74,29.75,3.0,SSW,5.8,-,N/A,,Haze,200,2013-03-06 14:37:00
7:53 AM,26.1,18.0,71,29.83,10.0,SSW,4.6,-,N/A,,Overcast,210,2013-03-06 14:53:00
8:53 AM,30.0,18.0,61,29.82,10.0,WNW,4.6,-,N/A,,Overcast,290,2013-03-06 15:53:00
9:53 AM,30.0,19.0,64,29.80,10.0,Calm,Calm,-,N/A,,Overcast,0,2013-03-06 16:53:00
10:53 AM,36.0,18.0,48,29.76,10.0,Calm,Calm,-,N/A,,Scattered Clouds,0,2013-03-06 17:53:00
11:53 AM,37.9,18.0,45,29.75,10.0,ESE,3.5,-,N/A,,Overcast,120,2013-03-06 18:53:00
12:53 PM,39.9,18.0,41,29.74,10.0,NNW,5.8,-,N/A,,Mostly Cloudy,330,2013-03-06 19:53:00
1:53 PM,44.1,21.9,42,29.68,10.0,Calm,Calm,-,N/A,,Overcast,0,2013-03-06 20:53:00
2:53 PM,39.0,28.9,67,29.76,5.0,West,29.9,38.0,0.00,Rain,Light Rain,260,2013-03-06 21:53:00
2:55 PM,35.6,30.2,81,29.71,0.8,West,32.2,40.3,0.00,Snow,Light Snow,260,2013-03-06 21:55:00
3:06 PM,33.8,30.2,87,29.72,0.2,WSW,15.0,33.4,0.01,Fog-Snow,Heavy Snow,250,2013-03-06 22:06:00
3:13 PM,32.0,32.0,100,29.70,0.2,SSW,8.1,-,0.03,Fog-Snow,Heavy Snow,200,2013-03-06 22:13:00
3:18 PM,32.0,32.0,100,29.69,0.5,South,5.8,-,0.03,Fog-Snow,Light Snow,170,2013-03-06 22:18:00
3:21 PM,32.0,32.0,100,29.69,1.2,SE,4.6,-,0.04,Snow,Light Snow,140,2013-03-06 22:21:00
3:26 PM,33.8,32.0,93,29.68,4.0,SE,6.9,-,0.04,Snow,Light Snow,130,2013-03-06 22:26:00
3:36 PM,33.8,32.0,93,29.68,10.0,SE,5.8,-,0.04,,Mostly Cloudy,130,2013-03-06 22:36:00
3:53 PM,34.0,32.0,92,29.75,10.0,East,8.1,-,0.04,,Partly Cloudy,100,2013-03-06 22:53:00
4:53 PM,37.0,33.1,86,29.70,10.0,Calm,Calm,-,N/A,,Clear,0,2013-03-06 23:53:00
5:53 PM,34.0,32.0,92,29.74,10.0,Calm,Calm,-,N/A,,Scattered Clouds,0,2013-03-07 00:53:00
6:53 PM,33.1,30.0,89,29.77,1.2,WNW,18.4,27.6,0.01,Snow,Light Snow,290,2013-03-07 01:53:00
6:55 PM,32.0,30.2,93,29.69,0.8,WNW,15.0,27.6,0.00,Snow,Light Snow,290,2013-03-07 01:55:00
7:05 PM,32.0,30.2,93,29.71,1.2,WNW,9.2,-,0.00,Snow,Light Snow,300,2013-03-07 02:05:00
7:11 PM,32.0,32.0,100,29.71,2.5,NW,6.9,-,0.01,Snow,Light Snow,320,2013-03-07 02:11:00
7:26 PM,32.0,30.2,93,29.72,9.0,Calm,Calm,-,0.01,,Overcast,0,2013-03-07 02:26:00
7:53 PM,30.9,30.0,96,29.81,10.0,SE,9.2,-,0.01,,Scattered Clouds,140,2013-03-07 02:53:00
8:03 PM,30.2,30.2,100,29.73,7.0,SE,9.2,-,N/A,,Mostly Cloudy,140,2013-03-07 03:03:00
8:53 PM,32.0,30.0,92,29.76,10.0,South,4.6,-,N/A,,Clear,170,2013-03-07 03:53:00
9:53 PM,28.9,27.0,92,29.82,9.0,WNW,8.1,-,N/A,,Mostly Cloudy,290,2013-03-07 04:53:00
10:06 PM,30.2,28.4,93,29.79,1.8,West,31.1,41.4,0.00,Snow,Light Snow,260,2013-03-07 05:06:00
10:11 PM,30.2,26.6,86,29.78,0.8,West,25.3,41.4,0.01,Snow,Light Snow,260,2013-03-07 05:11:00
10:20 PM,30.2,26.6,86,29.77,1.0,West,25.3,33.4,0.01,Snow,Light Snow,260,2013-03-07 05:20:00
10:23 PM,30.2,24.8,80,29.76,2.0,West,18.4,32.2,0.01,Snow,Light Snow,260,2013-03-07 05:23:00
10:30 PM,32.0,23.0,69,29.76,9.0,West,19.6,-,0.01,,Overcast,260,2013-03-07 05:30:00
10:40 PM,30.2,21.2,69,29.78,10.0,South,15.0,-,0.01,,Overcast,190,2013-03-07 05:40:00
10:50 PM,30.2,23.0,75,29.78,10.0,SSW,12.7,-,0.01,,Overcast,200,2013-03-07 05:50:00
10:53 PM,30.0,23.0,75,29.83,10.0,South,11.5,-,0.01,,Mostly Cloudy,190,2013-03-07 05:53:00
11:53 PM,28.0,21.0,75,29.85,10.0,SSW,4.6,-,N/A,,Clear,200,2013-03-07 06:53:00